STARLINK-1156, 45054

Orbit data source: Space-Track

STARLINK-1156, 45054 is a payload satellite owned by SpaceX/Seattle (US) in LEO that was launched on Wed, 29 Jan 2020 UTC via an FALCON 9 launch vehicle from the Air Force Eastern Test Range (AFETR). Payload-class satellites include a variety of spacecraft equipped with specific instruments for various scientific and technological missions. These include communications satellites like Starlink; space stations such as the ISS; scientific satellites like the Hubble; Earth observation satellites from companies like Planet Labs, Umbra, and HawkEye 360; GPS; miniature CubeSats for education and research; and military/defense satellites.

Loading next visibility...
Identifier
45054, 2020-006L
Orbit
LEO
Country
Flag of USUS
Related business
Manufacturer
SpaceX/Seattle
Mission
Partially operational Commercial Communications
Bus & Motor
STARLINK, Unknown motor
Mass
260 kg wet, ~248 kg dry
Launch date (UTC)
2020-01-29 (7 years ago)
Launch vehicle
FALCON 9
Launch site
Air Force Eastern Test Range (AFETR)
Object type
Payload
Rocket body
Debris
Shape & HBR
Box + 1 Pan, 10.1 m
Radar Cross Section
13.562 m², Large (>1 m²)

Expand to show TLE details & history
Last TLE update: 7 hours ago

TLE from 7 hours ago
0 STARLINK-1156
1 45054U 20006L   26257.89203635  .00051011  00000-0  11335-2 0  9997
2 45054  53.1523 114.8413 0001289 134.7153 225.3959 15.43206493365618
Epoch: 2026-09-14T21:24Z
TLE epoch observation values (Epoch: 2026-09-14T21:24:31.940Z)
Latitude
0.00001°
Longitude
159.84241°
Altitude
438.174 km
Speed
7.65 km/s
True Right ascension
07h 39m 21s
True Declination
0° 00' 00"
Sunlit
Object was in daylight at epoch
Visualization orbit readout
Latitude
Unknown
Longitude
Unknown
Altitude
Unknown
Speed
Unknown
Apparent Right ascension
Unknown
Apparent Declination
Unknown
Sunlit
N/A
Visualization observer readout
Local Sidereal Time
21:21:43
Azimuth
Unknown
Elevation
Unknown
Doppler factor
Unknown
Orbital elements
Apogee altitude
437.791 km
Perigee altitude
436.034 km
Semi-major axis
6,815.049 km
Eccentricity
0.00013
Inclination
53.1523°
RAAN
114.8413°
Arg. of periapsis
134.7153°
True anomaly
225.38538°
Mean anomaly
225.3959°
Eccentric anomaly
225.39064°
Mean motion
3.8578 °/min
Orbital period
93.32 mins
BSTAR
0.0011335
Loading maneuver chart data...
Computing Atmospheric mass density...

Documentation

Showing up to 5 results
|